Regional Weather Roundup
Issued by NWS Grand Forks, ND

Home | Current Version | Previous Version | Text Only | Print | Product List | Glossary Off
Versions: 1 2 3 4 5 6 7 8 9 10 11 12 13 14 15 16 17 18 19 20 21 22 23 24 25 26 27 28 29 30 31 32 33 34 35 36 37 38 39 40 41 42 43 44 45 46 47 48 49 50

000
ASUS43 KFGF 170910
RWRFGF
PRAIRIE TO PINES  WEATHER ROUNDUP
NATIONAL WEATHER SERVICE EASTERN NORTH DAKOTA/GRAND FORKS ND
400 AM CDT WED SEP 17 2014

 **SATELLITE DATA USED TO AUGMENT SKY COVER AT AUTOMATED STATIONS**
 *****  WEATHER ACROSS EASTERN NORTH DAKOTA  *****

CITY           SKY/WX    TMP DP  RH WIND       PRES   REMARKS
GRAND FORKS    CLEAR     45  41  86 S3        29.89F
GRAND FRKS AFB CLEAR     47  44  88 SW5       29.89F
GRAND FRKS NWS   N/A     46 N/A N/A SW3         N/A
DEVILS LAKE    CLEAR     52  43  71 SW5       29.90S
FARGO          CLEAR     49  45  86 S5        29.89F
WAHPETON ARPT  SUNNY     46  43  87 S3        29.91S
$$

 ***** WEATHER ACROSS CENTRAL AND WESTERN NORTH DAKOTA  *****

CITY           SKY/WX    TMP DP  RH WIND       PRES   REMARKS
BISMARCK       CLEAR     42  41  96 CALM      29.94S
MINOT          CLEAR     47  41  80 SW8       29.91S
JAMESTOWN      CLEAR     43  41  93 W3        29.91S
MINOT AFB      NOT AVBL
GARRISON         N/A     43  40  89 N5        29.93S
WILLISTON      CLEAR     41  36  82 CALM      29.93S
DICKINSON      PTCLDY    45  41  86 W3        29.94R
HETTINGER      CLEAR     41  39  93 CALM      29.95S
$$

 *****  OTHER AIRPORT OBSERVATIONS IN OUR AREA  *****

CITY           SKY/WX    TMP DP  RH WIND       PRES   REMARKS
WALHALLA       FAIR      48  48 100 NW5       29.94R
GRAFTON AIRPOR FAIR      48  43  81 W3        29.89S
VALLEY CITY AR FAIR      45  45 100 CALM      29.91S
CANDO          FAIR      41  39  93 W3        29.92S
CAVALIER APRT  FAIR      52  43  71 N7        29.92R
GWINNER        SUNNY     48  48 100 CALM      29.92R
SHEYENNE NWR     N/A     46  45  97 W2        29.95S
ROLLA          FAIR      46  41  81 W5        29.92S
 ***** THE ABOVE OBSERVATIONS ARE NON NWS ARE NOT QUALITY
       CONTROLLED AND MAY MIS-REPORT RAIN FOR SNOW...
$$

  *****  WEATHER ACROSS NORTHERN MINNESOTA  *****

CITY           SKY/WX    TMP DP  RH WIND       PRES   REMARKS
FLAG ISLAND    LGT RAIN  52  46  82 CALM      29.89F
WARROAD        PTCLDY    48  45  87 CALM      29.92F
ROSEAU         PTCLDY    48  43  81 CALM      29.92S
HALLOCK        PTCLDY    48  43  81 N3        29.91S
THF RVR FALLS  CLEAR     48  43  81 CALM      29.90S
BAUDETTE       MOCLDY    53  45  74 VRB5      29.91R
WASKISH        MOCLDY    52  45  76 CALM      29.90R
CROOKSTON      CLEAR     46  43  87 CALM      29.91S
STEPHEN NDAWN    N/A     45  43  93 SE2         N/A
GREENBUSH NDAW   N/A     46  43  87 NW2         N/A
$$
  *****  WEATHER ACROSS CENTRAL AND WEST MINNESOTA  *****

CITY           SKY/WX    TMP DP  RH WIND       PRES   REMARKS
FOSSTON        CLEAR     43  39  87 S5        29.91S
BEMIDJI        PTCLDY    40  37  91 CALM      29.91F
PARK RAPIDS    CLEAR     43  40  89 CALM      29.92F
ELBOW LAKE     FAIR      51  48  87 SE5       29.91S
WADENA         CLEAR     43  39  87 CALM      29.92S
DETROIT LAKES  CLEAR     50  46  87 SE3       29.92F
MOORHEAD       CLEAR     52  52 100 S3        29.90S
FERGUS FALLS   CLEAR     52  45  76 SE6       29.91F
MORRIS MN      CLEAR     48  46  93 SE6       29.90F
STAPLES        CLEAR     43  43 100 CALM      29.93S
$$
  *****  WEATHER ELSEWHERE ACROSS MINNESOTA  *****

CITY           SKY/WX    TMP DP  RH WIND       PRES   REMARKS
DULUTH         PTCLDY    48  41  76 SW5       29.93F
INTRNTL FALLS  CLOUDY    52  45  77 NW8       29.91R
ELY            CLOUDY    52  43  71 SW3       29.90S
CLOQUET        PTCLDY    45  39  81 CALM      29.94S
WHEATON        CLEAR     45  43  93 SE7       29.92S
BRAINERD       CLEAR     44  43  96 CALM      29.94S
HIBBING        CLEAR     40  37  89 SW3       29.92S
ALEXANDRIA     CLEAR     50  46  86 S5        29.93F
SAINT CLOUD    MOCLDY    52  48  86 SE6       29.94F
MINNEAPOLIS    CLOUDY    56  47  71 VRB3      29.96F
$$

  *****  WEATHER ACROSS SOUTH DAKOTA  *****

CITY           SKY/WX    TMP DP  RH WIND       PRES   REMARKS
SIOUX FALLS    PTCLDY    55  49  80 S5        29.93F
BROOKINGS      NOT AVBL
WATERTOWN      CLEAR     50  48  93 S6        29.92S
HURON          PTCLDY    52  50  93 E3        29.90S
SISSETON         N/A     54  51  90 SW5       29.89F
ABERDEEN       FOG       42  42 100 CALM      29.91F VSB 1
MITCHELL       CLEAR     49  49 100 SE6       29.91F
PIERRE         CLEAR     52  49  89 CALM      29.89S
MOBRIDGE       PTCLDY    50  48  93 NE6       29.89S
RAPID CITY     CLEAR     55  43  63 NW8       29.93F
$$

  *****  SOME WEATHER IN NEARBY STATES *****

CITY           SKY/WX    TMP DP  RH WIND       PRES   REMARKS
GLASGOW MT     MOCLDY    52  38  58 E10       29.89S
GREAT FALLS MT MOCLDY    53  46  77 CALM      29.92S
CHEYENNE WY    CLEAR     57  36  45 W12       30.13F
SCOTTSBLUFF NE PTCLDY    56  47  71 NE5       29.98F
OMAHA NE       CLOUDY    62  53  72 SE6       29.95F
DES MOINES IA  CLOUDY    57  49  74 SE5       30.00F
DAVENPORT IA   CLEAR     46  42  86 SE6       30.04F
CHICAGO IL     CLEAR     52  46  80 CALM      30.05F
EAU CLAIRE WI  MOCLDY    42  41  96 CALM      29.98F
LA CROSSE WI   CLOUDY    49  47  93 SE6       30.02S FOG
$$

  *****  SOME NATIONAL WEATHER *****

CITY           SKY/WX    TMP DP  RH WIND       PRES   REMARKS
LA GUARDIA NY  CLEAR     61  52  72 CALM      30.02S
RALEIGH NC     CLOUDY    68  65  90 NE6       29.96S
ATLANTA GA     CLEAR     69  66  90 N9        29.97S
NEW ORLEANS LA CLOUDY    76  70  82 W3        29.97R
OKLAHOMA CITY  PTCLDY    70  67  90 S5        29.98F
ALBUQUERQUE NM CLOUDY    62  54  74 S3        30.20F
SALT LAKE CITY CLEAR     73  38  27 SE13      29.95S
LOS ANGELES CA PTCLDY    76  62  62 CALM      29.73S
BOISE ID       CLOUDY    74  42  31 SE10      29.82S
SEATTLE WA     CLOUDY    63  54  72 SE6       29.86F
$$

*** WEATHER ACROSS MANITOBA...SASKATCHEWAN AND ONTARIO ***
                ***ONTARIO***

CITY           SKY/WX    TMP DP  RH WIND       PRES   REMARKS
GERALDTON      LGT SNOW  30  30 100 E7        30.05  VSB 3/4 WCI  23
THUNDER BAY    CLOUDY    45  41  87 NE5       29.95R
SIOUX LOOKOUT  FLURRIES  36  34  93 E5        29.98R
TORONTO        CLEAR     46  43  87 W7        30.02F
BIG TROUT LK   CLOUDY    34  25  69 N6        30.06R
PICKLE LAKE    NOT AVBL
DRYDEN         CLOUDY    37  37 100 NE10      29.95R
KENORA         LGT RAIN  41  39  93 E12       29.94R
$$
                *** MANITOBA***

CITY           SKY/WX    TMP DP  RH WIND       PRES   REMARKS
BRANDON        PTCLDY    45  43  93 E12       29.98R
DAUPHIN        CLOUDY    45  41  87 E10       30.04R
ISLAND LAKE    CLEAR     30  28  93 N6        30.11S WCI  24
PILOT MOUND      N/A     46  43  87 NE8         N/A
THE PAS        CLOUDY    34  32  93 E5        30.13R
THOMPSON       PTCLDY    21  19  93 CALM      30.15R
WINNIPEG       CLOUDY    46  45  93 NE12      29.96R
LYNN LAKE      CLEAR     25  21  86 CALM      30.16R
CHURCHILL      CLOUDY    34  23  64 NW14G24   30.09S WCI  24
GILLAM         CLOUDY    32  27  80 N12       30.13S WCI  23
$$
                ***SASKATCHEWAN***

CITY           SKY/WX    TMP DP  RH WIND       PRES   REMARKS
ESTEVAN        CLEAR     45  39  81 CALM      29.93S
KINDERSLEY     CLEAR     46  43  87 NE9       29.90R
LLOYDMINSTER   CLEAR     45  43  93 E9        29.90S
PRINCE ALBERT  CLOUDY    39  37  93 E12       30.03S FOG
REGINA         CLEAR     48  41  76 E7        29.92S
YORKTON        CLOUDY    45  43  93 NE10      30.00R
N. BATTLEFORD  FOG       45  43  93 SE16G23   29.96R VSB 3/4
LA RONGE       CLOUDY    37  36  93 E7        30.10S
SASKATOON      CLOUDY    45  45 100 E10G18    29.98R
SWIFT CURRENT  CLEAR     52  39  62 SE7       29.89F
$$
NOTE: THESE ARE AUTOMATED STATIONS WITH LIMITED QUALITY CONTROL
      "FAIR" INDICATES FEW OR NO CLOUDS BELOW 12,000 FEET WITH NO
      SIGNIFICANT WEATHER AND/OR OBSTRUCTIONS TO VISIBILITY.
      SKY/WX - SKY CONDITION AND SIGNIFICANT WEATHER.
      TMP - AIR TEMPERATURE.    DP   - DEWPOINT TEMPERATURE.
      RH  - RELATIVE HUMIDITY.  PRES - PRESSURE.
      HX  - HEAT INDEX.         WCI  - WIND CHILL INDEX.
$



USA.gov is the U.S. government's official web portal to all federal, state and local government web resources and services.